Ames, IA

4:30 PM CST on February 20, 2018 (GMT -0600)
Ames Municipal

Weather History for KAMW - August, 2014

Change the Weather History Date:

Thursday, August 28, 2014

  Actual Average Record
Temperature  
Mean Temperature 71 °F 69 °F  
Max Temperature 77 °F 80 °F 94 °F (2013)
Min Temperature 65 °F 58 °F 52 °F (2001)
Degree Days  
Heating Degree Days 0 1  
Month to date heating degree days 0 4  
Since 1 June heating degree days 16 32  
Since 1 July heating degree days 12 8  
Cooling Degree Days 6 5  
Month to date cooling degree days 197 186  
Year to date cooling degree days 578 672  
Since 1 June cooling degree days 501 623  
Growing Degree Days 20 (Base 50)    
Moisture  
Dew Point 68 °F    
Average Humidity 94    
Maximum Humidity 100    
Minimum Humidity 87    
Precipitation  
Precipitation 2.08 in 0.14 in 2.10 in (2006)
Month to date precipitation 5.84 4.02  
Sea Level Pressure  
Sea Level Pressure 29.97 in    
Wind  
Wind Speed 8 mph (SE)    
Max Wind Speed 20 mph    
Max Gust Speed 24 mph    
Visibility 7 miles    
Events Fog , Rain , Thunderstorm    
T = Trace of Precipitation, MM = Missing Value Source: NWS Daily Summary

Daily Weather History Graph

Daily Weather History Graph

Search for Another Location

Airport or City:

Trip Planner

Search our weather history database for the weather conditions in past years. The results will help you decide how hot, cold, wet, or windy it might be!

Date:

Astronomy

Aug. 28, 2014 Rise Set
Actual Time 6:35 AM CDT 7:54 PM CDT
Civil Twilight 6:06 AM CDT 8:23 PM CDT
Nautical Twilight 5:32 AM CDT 8:58 PM CDT
Astronomical Twilight 4:55 AM CDT 9:34 PM CDT
Moon 9:32 AM CDT (8/28) 9:15 PM CDT (8/28)
Length of Visible Light 14h 16m
Length of Day
13h 18m
Waxing Crescent, 9% of the Moon is Illuminated
Aug 28
Waxing Crescent
Sep 2
First Quarter
Sep 8
Full
Sep 15
Last Quarter
Sep 24
New

Hourly Weather History & Observations

Time (CDT) Temp. Dew Point Humidity Pressure Visibility Wind Dir Wind Speed Gust Speed Precip Events Conditions
12:53 AM 68.0 °F 64.9 °F 90% 30.08 in 10.0 mi SE 3.5 mph - 0.00 in   Overcast
1:53 AM 66.9 °F 64.9 °F 93% 30.06 in 10.0 mi Calm Calm - N/A   Mostly Cloudy
2:12 AM 66.9 °F 64.9 °F 93% 30.08 in 10.0 mi SSE 3.5 mph - N/A   Mostly Cloudy
2:53 AM 66.9 °F 64.9 °F 93% 30.03 in 10.0 mi East 4.6 mph - N/A   Mostly Cloudy
3:30 AM 66.9 °F 64.9 °F 93% 30.05 in 10.0 mi East 3.5 mph - N/A   Scattered Clouds
3:53 AM 66.9 °F 64.0 °F 90% 30.02 in 10.0 mi East 4.6 mph - N/A   Mostly Cloudy
4:29 AM 66.0 °F 64.0 °F 93% 30.05 in 10.0 mi SSE 3.5 mph - N/A   Overcast
4:53 AM 66.9 °F 64.0 °F 90% 30.03 in 10.0 mi SE 4.6 mph - N/A   Overcast
5:33 AM 66.0 °F 64.0 °F 93% 30.05 in 6.0 mi ESE 4.6 mph - 0.02 in Rain Rain
5:53 AM 66.0 °F 64.9 °F 96% 30.04 in 8.0 mi SE 3.5 mph - 0.04 in Rain Light Rain
6:12 AM 64.9 °F 64.9 °F 100% 30.06 in 2.0 mi SE 5.8 mph - 0.11 in Rain Heavy Rain
6:24 AM 64.9 °F 64.9 °F 100% 30.06 in 4.0 mi SE 3.5 mph - 0.15 in Rain Rain
6:53 AM 64.9 °F 64.9 °F 100% 30.02 in 4.0 mi East 5.8 mph - 0.28 in Rain Rain
7:53 AM 64.9 °F 64.9 °F 100% 30.03 in 6.0 mi ESE 3.5 mph - 0.04 in Rain Light Rain
8:53 AM 64.9 °F 64.9 °F 100% 30.02 in 3.0 mi East 5.8 mph - 0.14 in Rain Rain
9:14 AM 64.9 °F 64.9 °F 100% 30.03 in 2.0 mi ESE 6.9 mph - 0.08 in Rain Rain
9:45 AM 64.9 °F 64.9 °F 100% 30.04 in 6.0 mi South 3.5 mph - 0.11 in Rain Light Rain
10:04 AM 66.0 °F 66.0 °F 100% 30.03 in 2.5 mi SSE 6.9 mph - 0.03 in Rain Rain
10:15 AM 66.0 °F 66.0 °F 100% 30.02 in 4.0 mi ESE 6.9 mph - 0.04 in Rain Light Rain
10:23 AM 66.0 °F 66.0 °F 100% 30.01 in 5.0 mi East 10.4 mph - 0.04 in Rain Light Rain
10:53 AM 66.0 °F 66.0 °F 100% 30.00 in 4.0 mi SE 10.4 mph - 0.06 in Rain Light Rain
11:00 AM 66.9 °F 66.9 °F 100% 30.01 in 6.0 mi SE 9.2 mph - 0.00 in Rain Light Rain
11:53 AM 68.0 °F 68.0 °F 100% 29.98 in 10.0 mi SSE 11.5 mph 21.9 mph 0.00 in   Overcast
12:09 PM 70.0 °F 70.0 °F 100% 29.98 in 10.0 mi SE 12.7 mph - N/A   Overcast
12:53 PM 71.1 °F 69.1 °F 93% 29.96 in 10.0 mi SE 11.5 mph - N/A   Overcast
1:36 PM 73.9 °F 70.0 °F 87% 29.96 in 10.0 mi SSE 11.5 mph - N/A   Overcast
1:53 PM 73.9 °F 70.0 °F 87% 29.94 in 10.0 mi SE 12.7 mph 20.7 mph N/A   Overcast
2:36 PM 75.0 °F 70.0 °F 84% 29.95 in 10.0 mi SSE 16.1 mph - N/A   Mostly Cloudy
2:44 PM 73.9 °F 70.0 °F 87% 29.95 in 10.0 mi SE 12.7 mph - N/A   Mostly Cloudy
2:53 PM 75.9 °F 71.1 °F 85% 29.92 in 10.0 mi SE 10.4 mph - N/A   Mostly Cloudy
3:04 PM 75.0 °F 70.0 °F 84% 29.94 in 10.0 mi SE 13.8 mph - N/A   Scattered Clouds
3:24 PM 75.0 °F 70.0 °F 84% 29.94 in 10.0 mi SSE 12.7 mph - N/A   Mostly Cloudy
3:53 PM 75.9 °F 71.1 °F 85% 29.91 in 10.0 mi SSE 11.5 mph - N/A   Mostly Cloudy
4:53 PM 75.9 °F 71.1 °F 85% 29.90 in 10.0 mi SSE 11.5 mph - N/A   Overcast
5:15 PM 75.0 °F 71.1 °F 87% 29.92 in 10.0 mi SSE 6.9 mph - N/A   Overcast
5:53 PM 75.9 °F 72.0 °F 87% 29.90 in 10.0 mi SSE 5.8 mph - N/A   Mostly Cloudy
6:11 PM 77.0 °F 72.0 °F 84% 29.91 in 10.0 mi SE 10.4 mph - N/A   Partly Cloudy
6:53 PM 75.0 °F 71.1 °F 87% 29.88 in 10.0 mi SE 9.2 mph - N/A   Mostly Cloudy
7:30 PM 73.0 °F 71.1 °F 93% 29.89 in 9.0 mi SE 8.1 mph - N/A   Mostly Cloudy
7:53 PM 72.0 °F 70.0 °F 93% 29.87 in 9.0 mi SE 6.9 mph - N/A   Scattered Clouds
8:53 PM 72.0 °F 71.1 °F 97% 29.89 in 8.0 mi SE 5.8 mph - N/A   Mostly Cloudy
9:44 PM 72.0 °F 70.0 °F 93% 29.90 in 9.0 mi ESE 9.2 mph - N/A   Scattered Clouds
9:53 PM 72.0 °F 70.0 °F 93% 29.88 in 8.0 mi SE 6.9 mph - N/A   Scattered Clouds
10:01 PM 71.1 °F 70.0 °F 96% 29.90 in 8.0 mi SE 8.1 mph - N/A Thunderstorm Mostly Cloudy
10:18 PM 72.0 °F 70.0 °F 93% 29.92 in 7.0 mi South 8.1 mph - N/A Thunderstorm Thunderstorm
10:33 PM 72.0 °F 71.1 °F 97% 29.93 in 2.5 mi West 8.1 mph - 0.04 in Rain , Thunderstorm Light Thunderstorms and Rain
10:39 PM 69.1 °F 66.0 °F 90% 29.94 in 0.8 mi Variable 6.9 mph - 0.29 in Rain , Thunderstorm Heavy Thunderstorms and Rain
10:48 PM 66.2 °F 66.2 °F 100% 29.94 in 0.2 mi Calm Calm - 0.92 in Fog , Rain , Thunderstorm Heavy Thunderstorms and Rain
10:53 PM 66.0 °F 66.0 °F 100% 29.92 in 0.5 mi Variable 4.6 mph - 1.02 in Fog , Rain , Thunderstorm Heavy Thunderstorms and Rain
11:01 PM 66.0 °F 66.0 °F 100% 29.94 in 2.0 mi ENE 4.6 mph - 0.07 in Rain , Thunderstorm Heavy Thunderstorms and Rain
11:06 PM 66.0 °F 66.0 °F 100% 29.94 in 3.0 mi South 4.6 mph - 0.09 in Rain , Thunderstorm Thunderstorms and Rain
11:18 PM 66.9 °F 66.9 °F 100% 29.94 in 2.5 mi ESE 5.8 mph - 0.15 in Rain , Thunderstorm Heavy Thunderstorms and Rain
11:36 PM 66.9 °F 66.9 °F 100% 29.94 in 4.0 mi SE 6.9 mph - 0.27 in Rain , Thunderstorm Thunderstorms and Rain
11:41 PM 68.0 °F 68.0 °F 100% 29.93 in 4.0 mi SSE 10.4 mph - 0.27 in Rain , Thunderstorm Rain
11:48 PM 68.0 °F 68.0 °F 100% 29.93 in 5.0 mi SSE 9.2 mph - 0.28 in Rain Light Rain
11:53 PM 68.0 °F 68.0 °F 100% 29.92 in 6.0 mi South 6.9 mph - 0.29 in Rain Light Rain